Renton, WA
on Monday, November 12, 2012

Monday
Previous Day Next Day
Daily Summary
 ActualAverage (KSEA)Record (KSEA)
Temperature
Mean Temperature °F 46°F  
Max Temperature 54°F 52°F 60°F (1953)
Min Temperature 44°F 41°F 13°F (1955)
Degree Days
Heating Degree Days 16 19  
Month to date heating degree days 211  
Since 1 July heating degree days 808  
Cooling Degree Days 0 0  
Month to date cooling degree days 0  
Year to date cooling degree days 189  
Moisture
Dew Point 45°F   
Average Humidity 87    
Maximum Humidity 93    
Minimum Humidity 77    
Precipitation
Precipitation 0.15 in 0.23 in 1.52 in (1999)
Month to date precipitation 2.50  
Year to date precipitation 28.07  
Snow
Snow 0.00 in in T in (1955)
Month to date snowfall  
Since 1 July snowfall  
Snow Depth in   
Wind
Wind Speed 2 mph   
Max Wind Speed 7 mph   
Max Gust Speed mph   
Visibility 9 miles   
Events Rain   

Key: T is trace of precipitation, MM is missing value
Source: NWS Daily Summary
Time(PST)TemperatureDew PointHumidity Pressure Visibility Wind DirectionWind SpeedGust SpeedPrecipitationEvents Conditions
12:53 AM 45.0°F 42.1°F 90% 30.11 in 5.0 miles Calm Calm - 0.11 in Rain Light Rain
1:53 AM 45.0°F 42.1°F 90% 30.11 in 9.0 miles Calm Calm - 0.01 in   Overcast
2:53 AM 45.0°F 42.1°F 90% 30.10 in 6.0 miles SSE 3.5 mph - N/A   Overcast
3:53 AM 45.0°F 42.1°F 90% 30.11 in 10.0 miles Calm Calm - 0.00 in   Overcast
4:03 AM 44.6°F 42.8°F 93% 30.10 in 10.0 miles Calm Calm - N/A   Overcast
4:40 AM 44.6°F 42.8°F 93% 30.10 in 9.0 miles SSE 3.5 mph - 0.00 in Rain Light Rain
4:53 AM 45.0°F 42.1°F 90% 30.11 in 10.0 miles SSE 4.6 mph - 0.00 in   Overcast
5:53 AM 45.0°F 42.1°F 90% 30.11 in 10.0 miles SSE 4.6 mph - 0.01 in   Overcast
6:53 AM 46.0°F 42.1°F 86% 30.12 in 10.0 miles South 4.6 mph - N/A   Overcast
7:53 AM 46.0°F 42.1°F 86% 30.14 in 10.0 miles SSE 4.6 mph - N/A   Overcast
8:53 AM 46.9°F 42.1°F 83% 30.15 in 10.0 miles SE 5.8 mph - N/A   Overcast
9:53 AM 46.9°F 44.1°F 90% 30.15 in 4.0 miles Variable 4.6 mph - N/A   Overcast
10:53 AM 48.9°F 45.0°F 86% 30.16 in 10.0 miles East 4.6 mph - N/A   Overcast
11:53 AM 51.1°F 46.0°F 83% 30.16 in 10.0 miles East 6.9 mph - N/A   Overcast
12:53 PM 52.0°F 46.9°F 83% 30.17 in 10.0 miles East 5.8 mph - N/A   Overcast
1:53 PM 53.1°F 46.9°F 80% 30.17 in 10.0 miles East 5.8 mph - N/A   Overcast
2:53 PM 54.0°F 46.9°F 77% 30.17 in 10.0 miles ESE 3.5 mph - N/A   Overcast
3:53 PM 53.1°F 46.9°F 80% 30.17 in 10.0 miles Calm Calm - N/A   Overcast
4:53 PM 51.1°F 46.9°F 86% 30.19 in 10.0 miles Calm Calm - N/A   Mostly Cloudy
5:53 PM 51.1°F 46.0°F 83% 30.19 in 10.0 miles SE 3.5 mph - N/A   Overcast
6:53 PM 50.0°F 46.0°F 86% 30.20 in 10.0 miles Variable 3.5 mph - N/A   Overcast
7:53 PM 50.0°F 45.0°F 83% 30.21 in 10.0 miles SE 3.5 mph - 0.00 in   Overcast
8:53 PM 50.0°F 46.0°F 86% 30.22 in 10.0 miles Calm Calm - 0.00 in   Overcast
9:53 PM 50.0°F 46.9°F 89% 30.23 in 6.0 miles Calm Calm - 0.01 in Rain Light Rain
10:35 PM 48.2°F 46.4°F 93% 30.22 in 10.0 miles SE 3.5 mph - 0.01 in Rain Light Rain
10:53 PM 48.9°F 46.0°F 90% 30.24 in 10.0 miles Calm Calm - 0.01 in   Mostly Cloudy
11:53 PM 48.9°F 46.0°F 90% 30.23 in 10.0 miles Calm Calm - N/A   Overcast
Moon Phase
Nov. 12 Nov. 13 Nov. 20 Nov. 28 Dec. 06
Sunrise:07:10 AM (PST) Moon Rise:05:38 AM (PST)11/12
Sunset:04:35 PM (PST) Moon Set:03:46 PM (PST)11/12

Copyright © 2014 The Weather Underground, Inc.